Regional Weather Roundup
Issued by NWS New Orleans/Baton Rouge, LA

Home | Current Version | Previous Version | Text Only | Print | Product List | Glossary Off
Versions: 1 2 3 4 5 6 7 8 9 10 11 12 13 14 15 16 17 18 19 20 21 22 23 24 25 26 27 28 29 30 31 32 33 34 35 36 37 38 39 40 41 42 43 44 45 46 47 48 49 50

848
ASUS44 KLIX 302101
RWRLIX
NEW ORLEANS REGIONAL WEATHER ROUNDUP
NATIONAL WEATHER SERVICE NEW ORLEANS LA
400 PM CDT TUE SEP 30 2014

NOTE: "FAIR" INDICATES FEW OR NO CLOUDS BELOW 12,000 FEET WITH NO
      SIGNIFICANT WEATHER AND/OR OBSTRUCTIONS TO VISIBILITY.
      SKY/WX - SKY CONDITION AND SIGNIFICANT WEATHER.
      TMP - AIR TEMPERATURE.     DP    - DEWPOINT TEMPERATURE.
      RH  - RELATIVE HUMIDITY.   PRES  - PRESSURE.
      HI  - HEAT INDEX.          WCI   - WIND CHILL INDEX.

*  THESE STATIONS ARE NOT NWS OR FAA STATIONS AND ARE NOT UNDER
   NWS QUALITY CONTROL.

LAZ038-040-048-061>063-065>067-069-302200-
SOUTHEAST LOUISIANA

CITY           SKY/WX    TMP DP  RH WIND       PRES   REMARKS
N.O. AUDUBON   NOT AVBL
N.O. INTL ARPT MOSUNNY   88  69  53 NE14      29.83F
N.O. LAKEFRONT MOSUNNY   85  70  60 E9        29.85F
N.O. DOWNTOWN*   N/A     88  70  55 E5        29.85S
SLIDELL        PTSUNNY   84  70  62 SE10      29.84F
BATON ROUGE    PTSUNNY   87  70  56 NE6       29.83F
BOOTHVILLE     PTSUNNY   82  74  76 E10       29.86S
BELLE CHASSE   MOSUNNY   84  71  65 SE8       29.84F
BOGALUSA*      MOCLDY    88  67  49 NE8       29.86S
GALLIANO*      NOT AVBL
NEW ROADS*       N/A     88  69  53 CALM      29.83F
GONZALES*        N/A     88  72  58 E5        29.82F
HAMMOND*       NOT AVBL
HOUMA*         PTSUNNY  N/A N/A N/A SE5       29.83F
PORT FOURCHON* CLEAR     84  73  70 E7        29.88S

$$

MSZ070-080>082-302200-
SOUTHERN MISSISSIPPI

CITY           SKY/WX    TMP DP  RH WIND       PRES   REMARKS
MCCOMB         MOSUNNY   87  66  49 NE5       29.85F
GULFPORT       PTSUNNY   81  72  74 SE9       29.85F
BILOXI         MOSUNNY   83  73  71 SE8       29.85F
PASCAGOULA     MOSUNNY   85  68  56 MISG      29.86F
STENNIS ARPT*  MOSUNNY   84  70  61 SE6       29.86S

$$

COASTAL OBSERVATIONS
LAKE AND NEARSHORE STATIONS

STATION/POSITION TIME  TEMP    WIND        PRES    WAVE
                       AIR SEA DIR/SP/G            HT/PER
                 (UTC) (F)     (DEG/KT/KT) (MB)    (FT/S)
PASCAGOULA       2000   83      50/  3/  8 1010.8
WAVELAND YACHT   2000   78     160/ 10/ 12 1010.4
GRAND ISLE       2000   83 82   80/  6/ 11 1011.5
SOUTHWEST PASS   2000   89 87   60/ 10/ 12 1011.2
NEW CANAL        2000   82 78   50/ 10/ 11 1011.0
SHELL BEACH      2000   81 76   60/ 10/ 12 1010.8

OFFSHORE STATIONS

STATION/POSITION TIME  TEMP    WIND        PRES    WAVE
                       AIR SEA DIR/SP/G            HT/PER
                 (UTC) (F)     (DEG/KT/KT) (MB)    (FT/S)
64 S DAUPHIN ISL 1957   79 83   60/ 12/ 14 1011.2    2/ 5

$$




USA.gov is the U.S. government's official web portal to all federal, state and local government web resources and services.